LEVXLPLA

Guest
Details From LEVX - Vigo
To LPLA - LAJES
Flight Number -
Tags generated
Created
Modified
Stats Distance 919 nm / 1,702 km
Max Altitude 34,300 ft / 10,455 m
Waypoints 9
Social Downloads 1
Likes 0
Share VATSIM

Download

Looking for another format? Having issues loading an existing format? Contact us
Advertisement - Login to hide

Notes

Basic altitude profile: - Ascent Rate: 2500ft/min - Ascent Speed: 250kts - Cruise Altitude: 35000ft - Cruise Speed: 420kts - Descent Rate: 1500ft/min - Descent Speed: 250kts Options: - Use NATs: yes - Use PACOTS: yes - Use low airways: yes - Use high airways: yes

Route

LEVX DIRMA UZ25 ERPES 15SNT 4000N02000W BAVAS H121 REGLA LPLA

ID Type Via Altitude Latitude Longitude Leg Dist Tot Dist Heading (true) Name
O LEVX APT - 0 ft / 0 m 42.23189˚ -8.62677˚ - 0 nm - Vigo
DIRMA FIX - 32,700 ft / 9,967 m 40.85167˚ -9.50083˚ 91 nm 91 nm 206° / 205° -
SOPOP FIX UZ25 (AWY-HI) 34,000 ft / 10,363 m 40.44000˚ -12.38667˚ 133 nm 225 nm 260° / 258° -
ERPES FIX UZ25 (AWY-HI) 34,000 ft / 10,363 m 40.00000˚ -15.00000˚ 122 nm 348 nm 258° / 257° -
15SNT FIX - 34,000 ft / 10,363 m 40.00000˚ -16.00000˚ 46 nm 394 nm 270° / 270° -
4000N02000W LATLON - 34,000 ft / 10,363 m 40.00000˚ -20.00000˚ 184 nm 578 nm 271° / 269° -
BAVAS FIX - 34,300 ft / 10,455 m 39.00000˚ -23.67833˚ 180 nm 758 nm 252° / 249° -
REGLA FIX H121 (AWY-LO) 9,600 ft / 2,926 m 38.85528˚ -26.13889˚ 115 nm 874 nm 266° / 265° -
O LPLA APT - 0 ft / 0 m 38.76441˚ -27.09348˚ 45 nm 919 nm 263° / 263° LAJES

Altitude Profile

Advertisement - Login to hide

Weather


0- 5 10 15 20 25 30 35+ Temperature / ° C

Clouds and Precipitation
Forecast for 2017-12-16 06:00 UTC. Updated 44 minutes ago

Ground ~20,000 ft ~40,000 ft Winds

LEVX

Details ICAO LEVX (VGO)
Name Vigo
Region Spain
Timezone Europe/Madrid (UTC+1.0)
Stats Elevation 855 ft / 261 m (AMSL)
Location 42.231894° -8.626774°
Runways 1
Magnetic Variation 2.390° W

METAR

LEVX 160200Z 00000KT CAVOK 04/03 Q1022 NOSIG

Decode

TAF

TAF LEVX 152300Z 1600/1624 VRB04KT CAVOK TX11/1615Z TN02/1608Z TEMPO 1612/1624 01010KT

Decode

Departure Runways

ID Width Length Bearing (true) Bearing (mag) Surface Threshold Offset Overrun Length
02 148 ft / 45 m 7,905 ft / 2,409 m 11.38° 13.77° Asphalt 0 ft / 0 m 164 ft / 50 m
20 148 ft / 45 m 7,905 ft / 2,409 m 191.38° 193.77° Asphalt 0 ft / 0 m 164 ft / 50 m

LPLA

Details ICAO LPLA (TER)
Name LAJES
Region Portugal
Timezone Atlantic/Azores (UTC-1.0)
Stats Elevation 180 ft / 55 m (AMSL)
Location 38.764410° -27.093482°
Runways 1
Magnetic Variation 8.934° W

METAR

LPLA 160200Z /////KT 9999 SCT025 17/15 Q1030

Decode

TAF

TAF LPLA 152302Z 1600/1624 27005KT 9999 FEW015 SCT030= TAF LPPD 152300Z 1600/1624 VRB05KT 9999 FEW015 BKN030 TEMPO 1600/1624 SCT018 PROB30 1610/1618 30008KT

Decode

Destination Runways

ID Width Length Bearing (true) Bearing (mag) Surface Threshold Offset Overrun Length
15 197 ft / 60 m 10,869 ft / 3,313 m 140.81° 149.74° Asphalt 0 ft / 0 m 991 ft / 302 m
33 197 ft / 60 m 10,869 ft / 3,313 m 320.82° 329.75° Asphalt 0 ft / 0 m 1,040 ft / 317 m

Approach Navaids

Runway Type Ident Frequency Range Bearing (true) Bearing (mag) Slope Elevation
15 Localiser DK 109.90 MHz 18 nm / 33 km 140.82° 149.76° - 180 ft / 55 m (AMSL)
15 Glidescope DK 109.90 MHz 10 nm / 19 km 140.81° 149.75° 3.00° 159 ft / 48 m (AMSL)
33 Localiser OZ 111.50 MHz 18 nm / 33 km 320.81° 329.75° - 158 ft / 48 m (AMSL)
33 Glidescope OZ 111.50 MHz 10 nm / 19 km 320.81° 329.75° 3.20° 180 ft / 55 m (AMSL)

Popular Alternatives